SCP
0 0 0 0 0 0 0 0 0 0 0 0 0 0 0 0 0 0 0 0 0 0
0 0 0 0 0 0 0 0 0 0 0 0 0 0 0 0 0 0 0 0 0 0
0 0 0 0 0 0 0 0 0 0 0 0 0 0 0 0 0 0 0 0 0 0
0 0 0 0 0 0 0 0 0 0 0 0 0 0 0 0 0 0 0 0 0 0
0 -0 0 0 0 0 0 0 0 0 0 0 0 0 0 0 0 0 0 0 0 0
-0 0 0 0 0 0 0 0 0 0 0 0 0 0 0 0 0 0 0 0 0 0
-0 0 0 0 0 0 0 0 0 0 0 0 0 0 0 0 0 0 0 0 0 0
-0 0 0 -0 0 0 0 0 0 0 0 0 0 0 0 0 0 0 0 0 0 0
-0 0 0 0 0 0 0 0 0 0 0 0 0 0 -0 0 0 0 0 0 0 0
-0 -0 -0 -0 0 0 0 0 0 0 0 0 0 0 0 0 0 0 0 0 0 0
0 0 0 0 0 0 0 0 0 0 0 0 0 0 0 0 0 0 0 0 0 0
0 0 0 0 0 0 0 0 0 0 0 0 0 0 0 0 0 0 0 0 0 0
0 0 0 0 0 0 0 0 0 0 0 0 0 0 0 0 0 0 0 0 0 0
0 0 0 0 0 0 0 0 0 0 0 0 0 0 0 0 0 0 0 0 0 0
Wind_Speed_500mb
41 101 92 91 98 100 96 94 91 83 81 76 66 60 57 53 48 44 42 37 30 22
32 103 89 85 87 96 89 83 83 79 75 71 66 61 57 53 50 47 43 32 33 23
22 77 77 79 81 85 83 78 74 70 67 63 60 57 56 52 51 50 42 32 28 34
36 24 45 69 75 75 75 68 68 72 70 67 61 61 58 55 54 47 40 35 31 28
28 39 31 36 83 87 72 74 75 74 69 68 62 61 56 55 53 49 47 40 37 29
32 27 30 26 28 50 58 65 88 82 73 65 59 56 55 50 44 43 38 39 45 47
22 19 19 27 31 29 44 95 71 72 70 54 51 45 39 40 40 34 30 36 41 40
25 19 21 28 30 32 39 55 69 66 62 53 51 50 44 47 40 43 42 40 38 35
23 20 21 28 36 32 37 29 31 36 38 42 47 54 47 45 44 42 40 42 40 40
17 18 25 29 33 34 33 34 34 33 36 40 44 45 42 44 47 47 42 40 41 43
14 16 19 23 26 28 33 33 33 35 37 40 45 46 48 45 43 47 43 42 40 37
13 18 21 24 27 29 31 33 37 40 42 43 43 40 39 42 44 44 41 39 40 39
12 16 21 22 22 23 25 29 31 33 35 36 38 38 43 47 46 45 43 41 41 37
17 22 23 24 25 27 28 30 32 33 34 35 35 36 42 40 39 39 39 39 39 37
Wind_Direction_500mb
255 195 196 192 190 192 194 194 195 196 196 198 196 196 195 196 199 198 196 200 199 203
197 192 194 192 192 195 196 194 192 194 195 197 196 196 198 198 193 196 196 203 215 211
196 181 194 197 194 193 195 194 189 189 190 188 190 191 193 191 193 194 204 217 222 225
109 146 185 203 202 198 195 190 189 188 189 188 193 192 193 191 195 203 213 225 236 249
166 153 145 161 188 199 199 198 193 190 186 192 193 195 196 202 209 216 224 232 240 242
174 183 194 178 172 186 211 210 196 192 189 184 189 195 203 209 215 222 235 241 244 241
173 149 183 182 176 162 179 189 195 182 179 188 194 193 201 217 225 229 233 243 227 223
154 139 135 157 165 173 182 180 179 179 184 197 211 226 247 227 222 229 222 210 211 220
181 188 189 173 173 183 187 199 206 220 218 213 228 230 235 231 226 216 217 224 226 232
169 182 189 199 206 207 217 221 213 215 212 212 216 218 213 212 217 221 227 225 227 235
163 163 159 164 173 177 188 195 200 202 205 212 216 220 222 223 222 219 220 227 223 217
178 186 191 195 198 203 209 214 217 219 222 225 228 226 218 214 214 222 216 213 212 214
222 217 226 228 232 236 232 229 234 237 236 233 233 228 219 218 215 214 213 212 217 220
246 244 243 238 240 241 238 237 237 237 237 234 227 220 219 219 219 220 216 219 225 228
Wind_Speed_850mb
41 101 92 91 98 100 96 94 91 83 81 76 66 60 57 53 48 44 42 37 30 22
32 103 89 85 87 96 89 83 83 79 75 71 66 61 57 53 50 47 43 32 33 23
22 77 77 79 81 85 83 78 74 70 67 63 60 57 56 52 51 50 42 32 28 34
36 24 45 69 75 75 75 68 68 72 70 67 61 61 58 55 54 47 40 35 31 28
28 39 31 36 83 87 72 74 75 74 69 68 62 61 56 55 53 49 47 40 37 29
32 27 30 26 28 50 58 65 88 82 73 65 59 56 55 50 44 43 38 39 45 47
22 19 19 27 31 29 44 95 71 72 70 54 51 45 39 40 40 34 30 36 41 40
25 19 21 28 30 32 39 55 69 66 62 53 51 50 44 47 40 43 42 40 38 35
23 20 21 28 36 32 37 29 31 36 38 42 47 54 47 45 44 42 40 42 40 40
17 18 25 29 33 34 33 34 34 33 36 40 44 45 42 44 47 47 42 40 41 43
14 16 19 23 26 28 33 33 33 35 37 40 45 46 48 45 43 47 43 42 40 37
13 18 21 24 27 29 31 33 37 40 42 43 43 40 39 42 44 44 41 39 40 39
12 16 21 22 22 23 25 29 31 33 35 36 38 38 43 47 46 45 43 41 41 37
17 22 23 24 25 27 28 30 32 33 34 35 35 36 42 40 39 39 39 39 39 37
Wind_Direction_850mb
255 195 196 192 190 192 194 194 195 196 196 198 196 196 195 196 199 198 196 200 199 203
197 192 194 192 192 195 196 194 192 194 195 197 196 196 198 198 193 196 196 203 215 211
196 181 194 197 194 193 195 194 189 189 190 188 190 191 193 191 193 194 204 217 222 225
109 146 185 203 202 198 195 190 189 188 189 188 193 192 193 191 195 203 213 225 236 249
166 153 145 161 188 199 199 198 193 190 186 192 193 195 196 202 209 216 224 232 240 242
174 183 194 178 172 186 211 210 196 192 189 184 189 195 203 209 215 222 235 241 244 241
173 149 183 182 176 162 179 189 195 182 179 188 194 193 201 217 225 229 233 243 227 223
154 139 135 157 165 173 182 180 179 179 184 197 211 226 247 227 222 229 222 210 211 220
181 188 189 173 173 183 187 199 206 220 218 213 228 230 235 231 226 216 217 224 226 232
169 182 189 199 206 207 217 221 213 215 212 212 216 218 213 212 217 221 227 225 227 235
163 163 159 164 173 177 188 195 200 202 205 212 216 220 222 223 222 219 220 227 223 217
178 186 191 195 198 203 209 214 217 219 222 225 228 226 218 214 214 222 216 213 212 214
222 217 226 228 232 236 232 229 234 237 236 233 233 228 219 218 215 214 213 212 217 220
246 244 243 238 240 241 238 237 237 237 237 234 227 220 219 219 219 220 216 219 225 228